User: anonymous   Login
Location: Unspecified
(0.0000°N, 0.0000°E)
Time: 05:59:12
(UTC+00:00)
Language:

ASTRA 1KR - Orbit

View from above orbital plane
View from above orbital plane
View from above satellite
View from above satellite

Ground track
Ground track

The orbit data is extracted from the following two-line orbital elements,

1 29055U 06012A   17328.56226531 +.00000126 +00000-0 +00000-0 0  9990
2 29055 000.0371 279.1715 0005250 320.2009 045.9500 01.00271792014382
Epoch (UTC): 24 November 2017 13:29:39
Eccentricity: 0.0005250
inclination: 0.0371°
perigee height: 35764 km
apogee height: 35808 km
right ascension of ascending node: 279.1715°
argument of perigee: 320.2009°
revolutions per day: 1.00271792
mean anomaly at epoch: 45.9500°
orbit number at epoch: 1438

The dashed part of the orbit path shows where the satellite is in the earth's shadow,  

DLR